Orangeburg, SC

7:04 AM EDT on March 24, 2017 (GMT -0400)
Orangeburg Municipal

Weather History for KOGB - September, 2012

Change the Weather History Date:

Monday, September 17, 2012

  Actual Average Record
Temperature  
Mean Temperature 77 °F 75 °F  
Max Temperature 87 °F 85 °F 99 °F (1980)
Min Temperature 67 °F 64 °F 50 °F (1961)
Degree Days  
Heating Degree Days 0 0  
Month to date heating degree days 0 0  
Since 1 July heating degree days 0 0  
Cooling Degree Days 12 10  
Month to date cooling degree days 210 197  
Year to date cooling degree days 2115 1890  
Growing Degree Days 27 (Base 50)    
Moisture  
Dew Point 68 °F    
Average Humidity 78    
Maximum Humidity 97    
Minimum Humidity 48    
Precipitation  
Precipitation T in 0.12 in 3.78 in (1974)
Month to date precipitation 3.22 2.18  
Year to date precipitation 34.41 35.49  
Sea Level Pressure  
Sea Level Pressure 30.01 in    
Wind  
Wind Speed 5 mph (SSE)    
Max Wind Speed 15 mph    
Max Gust Speed 20 mph    
Visibility 9 miles    
Events      
T = Trace of Precipitation, MM = Missing Value Source: NWS Daily Summary

Daily Weather History Graph

Daily Weather History Graph

Search for Another Location

Airport or City:

Trip Planner

Search our weather history database for the weather conditions in past years. The results will help you decide how hot, cold, wet, or windy it might be!

Date:

Astronomy

Sep. 17, 2012 Rise Set
Actual Time 7:08 AM EDT 7:26 PM EDT
Civil Twilight 6:43 AM EDT 7:51 PM EDT
Nautical Twilight 6:14 AM EDT 8:20 PM EDT
Astronomical Twilight 5:45 AM EDT 8:49 PM EDT
Moon 8:47 AM EDT (9/17) 8:17 PM EDT (9/17)
Length of Visible Light 13h 07m
Length of Day
12h 17m
Waxing Crescent, 3% of the Moon is Illuminated
Sep 17
Waxing Crescent
Sep 22
First Quarter
Sep 29
Full
Oct 8
Last Quarter
Oct 15
New

Hourly Weather History & Observations

Time (EDT) Temp. Heat Index Dew Point Humidity Pressure Visibility Wind Dir Wind Speed Gust Speed Precip Events Conditions
12:53 AM 73.0 °F - 69.1 °F 87% 30.07 in 10.0 mi Calm Calm - N/A   Overcast
1:53 AM 72.0 °F - 69.1 °F 91% 30.07 in 10.0 mi Calm Calm - N/A   Overcast
2:53 AM 72.0 °F - 69.1 °F 91% 30.06 in 10.0 mi Calm Calm - N/A   Mostly Cloudy
3:53 AM 72.0 °F - 69.1 °F 91% 30.05 in 10.0 mi Calm Calm - N/A   Mostly Cloudy
4:53 AM 70.0 °F - 68.0 °F 93% 30.04 in 7.0 mi Calm Calm - N/A   Partly Cloudy
5:40 AM 69.8 °F - 68.0 °F 94% 30.05 in 0.8 mi Calm Calm - N/A   Mist
5:51 AM 69.8 °F - 66.2 °F 88% 30.05 in 1.5 mi Calm Calm - N/A   Partly Cloudy
5:53 AM 68.0 °F - 66.9 °F 96% 30.04 in 4.0 mi Calm Calm - N/A   Partly Cloudy
6:53 AM 69.1 °F - 66.9 °F 93% 30.05 in 7.0 mi Calm Calm - N/A   Clear
7:53 AM 70.0 °F - 68.0 °F 93% 30.06 in 7.0 mi Calm Calm - N/A   Clear
8:00 AM 69.8 °F - 68.0 °F 94% 30.07 in 6.0 mi Calm Calm - N/A   Scattered Clouds
8:53 AM 73.0 °F - 70.0 °F 90% 30.07 in 10.0 mi Calm Calm - N/A   Mostly Cloudy
9:53 AM 78.1 °F - 71.1 °F 79% 30.07 in 10.0 mi SE 4.6 mph - N/A   Partly Cloudy
10:53 AM 82.0 °F 85.5 °F 69.1 °F 65% 30.06 in 10.0 mi SSW 5.8 mph - N/A   Scattered Clouds
11:53 AM 82.9 °F 85.4 °F 66.9 °F 58% 30.05 in 10.0 mi Variable 4.6 mph - N/A   Clear
12:53 PM 82.9 °F 85.0 °F 66.0 °F 56% 30.03 in 10.0 mi SE 4.6 mph - N/A   Scattered Clouds
1:53 PM 84.9 °F 86.6 °F 64.9 °F 51% 30.00 in 10.0 mi SSE 4.6 mph - N/A   Scattered Clouds
2:53 PM 86.0 °F 87.6 °F 64.9 °F 49% 29.97 in 10.0 mi SSW 9.2 mph - N/A   Partly Cloudy
3:53 PM 86.0 °F 88.8 °F 66.9 °F 53% 29.95 in 10.0 mi SSE 9.2 mph - N/A   Mostly Cloudy
4:53 PM 84.9 °F 87.1 °F 66.0 °F 53% 29.93 in 10.0 mi SSE 10.4 mph - N/A   Mostly Cloudy
5:53 PM 82.9 °F 85.8 °F 68.0 °F 60% 29.94 in 10.0 mi SSE 5.8 mph - N/A   Mostly Cloudy
6:53 PM 80.1 °F 83.2 °F 70.0 °F 71% 29.93 in 10.0 mi SSE 8.1 mph - 0.00 in   Clear
7:53 PM 77.0 °F - 69.1 °F 76% 29.93 in 10.0 mi SE 6.9 mph - N/A   Clear
8:53 PM 75.9 °F - 69.1 °F 79% 29.94 in 10.0 mi SSE 8.1 mph - N/A   Clear
9:53 PM 75.0 °F - 69.1 °F 82% 29.94 in 10.0 mi SSE 9.2 mph - N/A   Partly Cloudy
10:53 PM 73.9 °F - 69.1 °F 85% 29.94 in 10.0 mi SSE 9.2 mph - N/A   Clear
11:53 PM 73.9 °F - 69.1 °F 85% 29.93 in 10.0 mi SSE 5.8 mph - N/A   Clear